Location: Unspecified
(41.1850°N, 73.2650°W)
Time: 21:31:39
(UTC+00:00)

Cosmos 2333 Rocket - Pass Details

Date: 14 December 2025
Orbit: 837 x 865 km, 70.8° (Epoch: 12 January)

Event Time Altitude Azimuth Distance (km) Brightness Sun altitude
Rises 23:16:55 0° 182° (S) 3,410 5.5 -20.3°
Reaches altitude 10° 23:19:28 10° 175° (S) 2,482 4.7 -20.8°
Maximum altitude 23:24:48 42° 106° (ESE) 1,219 2.6 -21.7°
Enters shadow 23:24:53 42° 104° (ESE) 1,220 2.6 -21.8°
